Weather History for London, United Kingdom

Change the Weather History Date:

Tuesday, October 9, 2012

  Actual Average Record
Temperature  
Mean Temperature 52 °F -  
Max Temperature 57 °F 56 °F 69 °F (2006)
Min Temperature 47 °F 44 °F 41 °F (2008)
Degree Days  
Heating Degree Days 13    
Growing Degree Days 2 (Base 50)    
Moisture  
Dew Point 47 °F    
Average Humidity 80    
Maximum Humidity 94    
Minimum Humidity 57    
Precipitation  
Precipitation 0.00 in - - ()
Sea Level Pressure  
Sea Level Pressure 30.01 in    
Wind  
Wind Speed 5 mph ()    
Max Wind Speed 10 mph    
Max Gust Speed -    
Visibility 6.0 miles    
Events      
Averages and records for this station are not official NWS values.
T = Trace of Precipitation, MM = Missing Value Source: Averaged Metar Reports

Daily Weather History Graph

Daily Weather History Graph

Search for Another Location

Airport:

Trip Planner

Search our weather history database for the weather conditions in past years. The results will help you decide how hot, cold, wet, or windy it might be!

Date:

Astronomy

Oct. 09, 2012 Rise Set
Actual Time 7:16 AM BST 6:20 PM BST
Civil Twilight 6:42 AM BST 6:54 PM BST
Nautical Twilight 6:04 AM BST 7:32 PM BST
Astronomical Twilight 5:25 AM BST 8:11 PM BST
Moon No Moon Rise 3:17 PM BST (10/9)
Length of Visible Light 12h 11m
Length of Day
11h 04m
Last Quarter, 39% of the Moon is Illuminated
Oct 9
Last Quarter
Oct 15
New
Oct 22
First Quarter
Oct 29
Full
Nov 7
Last Quarter

Hourly Weather History & Observations

Time (BST) Temp. Dew Point Humidity Pressure Visibility Wind Dir Wind Speed Gust Speed Precip Events Conditions
12:20 AM 53.6 °F 51.8 °F 94% 29.92 in - North 3.5 mph - N/A   Mostly Cloudy
12:50 AM 53 °F 52 °F 93% 29.94 in 4 mi North 3.5 mph - -   Mist
12:50 AM 53.6 °F 51.8 °F 94% 29.92 in 2.8 mi North 3.5 mph - N/A   Mostly Cloudy
1:20 AM 53.6 °F 51.8 °F 94% 29.95 in - North 4.6 mph - N/A   Haze
1:50 AM 53.6 °F 51.8 °F 94% 29.95 in - North 3.5 mph - N/A   Haze
2:20 AM 53.6 °F 51.8 °F 94% 29.95 in - Variable 3.5 mph - N/A   Haze
2:50 AM 51.8 °F 50.0 °F 94% 29.95 in 2.5 mi Variable 3.5 mph - N/A   Scattered Clouds
3:20 AM 51.8 °F 50.0 °F 94% 29.95 in 2.5 mi Variable 3.5 mph - N/A   Scattered Clouds
3:50 AM 51 °F 49 °F 89% 29.96 in 4 mi North 5.8 mph - -   Light Haze
3:50 AM 50.0 °F 48.2 °F 94% 29.95 in - North 4.6 mph - N/A   Scattered Clouds
4:20 AM 50.0 °F 48.2 °F 94% 29.98 in 3.7 mi Variable 3.5 mph - N/A   Partly Cloudy
4:50 AM 48.2 °F 46.4 °F 93% 29.98 in 3.7 mi NNE 4.6 mph - N/A   Partly Cloudy
5:20 AM 48.2 °F 46.4 °F 93% 29.98 in 3.7 mi NNE 4.6 mph - N/A   Unknown
5:50 AM 48.2 °F 46.4 °F 93% 29.98 in 3.1 mi NNE 5.8 mph - N/A   Mostly Cloudy
6:20 AM 48.2 °F 46.4 °F 93% 29.98 in 2.8 mi NE 5.8 mph - N/A   Mostly Cloudy
6:50 AM 49 °F 47 °F 92% 30.00 in 3 mi NE 5.8 mph - -   Light Haze
6:50 AM 48.2 °F 46.4 °F 93% 30.01 in 3.1 mi NE 6.9 mph - N/A   Mostly Cloudy
7:20 AM 50.0 °F 48.2 °F 94% 30.01 in 3.7 mi ENE 5.8 mph - N/A   Mostly Cloudy
7:50 AM 50.0 °F 46.4 °F 87% 30.01 in 4.3 mi NE 4.6 mph - N/A   Mostly Cloudy
8:20 AM 48.2 °F 46.4 °F 93% 30.04 in 5.0 mi ENE 4.6 mph - N/A   Scattered Clouds
8:50 AM 50.0 °F 46.4 °F 87% 30.04 in 3.7 mi ENE 6.9 mph - N/A   Scattered Clouds
9:20 AM 50.0 °F 46.4 °F 87% 30.04 in 5.6 mi ENE 6.9 mph - N/A   Partly Cloudy
9:50 AM 52 °F 47 °F 76% 30.04 in 9 mi NE 6.9 mph - -   Scattered Clouds
9:50 AM 51.8 °F 46.4 °F 82% 30.04 in 6.2 mi ENE 8.1 mph - N/A   Partly Cloudy
10:20 AM 51.8 °F 46.4 °F 82% 30.04 in 6.2 mi ENE 9.2 mph - N/A   Partly Cloudy
10:50 AM 53.6 °F 46.4 °F 77% 30.04 in 6.2 mi ENE 8.1 mph - N/A   Scattered Clouds
11:20 AM 53.6 °F 46.4 °F 77% 30.04 in 6.2 mi East 10.4 mph - N/A   Scattered Clouds
11:50 AM 55.4 °F 46.4 °F 72% 30.04 in 6.2 mi East 9.2 mph - N/A   Scattered Clouds
12:20 PM 57.2 °F 46.4 °F 67% 30.04 in 6.2 mi ENE 9.2 mph - N/A   Mostly Cloudy
12:50 PM 56 °F 46 °F 60%  in - East 8.1 mph - -  
12:50 PM 55.4 °F 46.4 °F 72% 30.04 in 6.2 mi ENE 9.2 mph - N/A   Scattered Clouds
1:20 PM 57.2 °F 46.4 °F 67% 30.04 in 6.2 mi East 8.1 mph - N/A   Scattered Clouds
1:50 PM 57.2 °F 46.4 °F 67% 30.04 in 6.2 mi ENE 8.1 mph - N/A   Overcast
2:20 PM 57.2 °F 46.4 °F 67% 30.04 in 6.2 mi ENE 6.9 mph - N/A   Mostly Cloudy
2:50 PM 57.2 °F 46.4 °F 67% 30.01 in 6.2 mi ENE 8.1 mph - N/A   Mostly Cloudy
3:20 PM 57.2 °F 46.4 °F 67% 30.01 in 6.2 mi ENE 9.2 mph - N/A   Overcast
3:50 PM 57 °F 46 °F 57% 30.02 in 16 mi ENE 8.1 mph - -   Overcast
3:50 PM 57.2 °F 46.4 °F 67% 30.01 in 6.2 mi ENE 9.2 mph - N/A   Overcast
4:20 PM 55.4 °F 46.4 °F 72% 30.01 in 6.2 mi East 6.9 mph - N/A   Mostly Cloudy
4:50 PM 55.4 °F 46.4 °F 72% 30.01 in 6.2 mi East 8.1 mph - N/A   Mostly Cloudy
5:20 PM 55.4 °F 46.4 °F 72% 30.01 in 6.2 mi East 9.2 mph - N/A   Mostly Cloudy
5:50 PM 55.4 °F 46.4 °F 72% 30.01 in 6.2 mi East 10.4 mph - N/A   Mostly Cloudy
6:20 PM 53.6 °F 44.6 °F 72% 30.01 in 6.2 mi East 8.1 mph - N/A   Mostly Cloudy
6:50 PM 54 °F 46 °F 65% 30.02 in 14 mi East 8.1 mph - -   Overcast
6:50 PM 53.6 °F 46.4 °F 77% 30.01 in 6.2 mi East 8.1 mph - N/A   Mostly Cloudy
7:20 PM 53.6 °F 44.6 °F 72% 30.01 in 6.2 mi East 9.2 mph - N/A   Mostly Cloudy
7:50 PM 53.6 °F 44.6 °F 72% 30.01 in 6.2 mi East 9.2 mph - N/A   Mostly Cloudy
8:20 PM 53.6 °F 44.6 °F 72% 30.04 in 6.2 mi East 9.2 mph - N/A   Mostly Cloudy
8:50 PM 53.6 °F 44.6 °F 72% 30.04 in 6.2 mi East 9.2 mph - N/A   Overcast
9:20 PM 51.8 °F 44.6 °F 76% 30.04 in 6.2 mi East 6.9 mph - N/A   Mostly Cloudy
9:50 PM 53 °F 44 °F 63% 30.03 in 19 mi East 6.9 mph - -   Overcast
9:50 PM 53.6 °F 44.6 °F 72% 30.04 in 6.2 mi East 6.9 mph - N/A   Overcast
10:20 PM 53.6 °F 44.6 °F 72% 30.04 in 6.2 mi ENE 4.6 mph - N/A   Overcast
10:50 PM 51.8 °F 44.6 °F 76% 30.04 in 6.2 mi East 5.8 mph - N/A   Overcast
11:20 PM 51.8 °F 44.6 °F 76% 30.04 in 6.2 mi East 4.6 mph - N/A   Overcast
11:50 PM 51.8 °F 44.6 °F 76% 30.01 in 6.2 mi East 6.9 mph - N/A   Mostly Cloudy